Regional Weather Roundup
Issued by NWS Mt. Holly, NJ

Home | Current Version | Previous Version | Text Only | Print | Product List | Glossary On
Versions: 1 2 3 4 5 6 7 8 9 10 11 12 13 14 15 16 17 18 19 20 21 22 23 24 25 26 27 28 29 30 31 32 33 34 35 36 37 38 39 40 41 42 43 44 45 46 47 48 49 50
000
ASUS41 KPHI 230310
RWRPHI

REGIONAL WEATHER ROUNDUP
NATIONAL WEATHER SERVICE MOUNT HOLLY NJ
1100 PM EDT TUE JUL 22 2014

NOTE:  "FAIR" INDICATES FEW OR NO CLOUDS BELOW 12,000 FEET WITH NO
SIGNIFICANT WEATHER AND/OR OBSTRUCTIONS TO VISIBILITY.

 * = STATION DOES NOT REPORT PRECIPITATION (E.G. RAIN, SNOW, ETC.)
        OR FOG.

NJZ015>026-230400-
SOUTHERN NEW JERSEY

CITY           SKY/WX    TMP DP  RH WIND       PRES   REMARKS
POMONA         PTCLDY    72  68  87 S5        30.10F
RIO GRANDE*    PTCLDY    72  64  78 S6        30.11F
MILLVILLE      PTCLDY    71  67  87 CALM      30.10F
WRIGHTSTOWN    CLEAR     71  63  76 SW6       30.07F
MOUNT HOLLY    CLEAR     72  63  73 S3        30.08F
TRENTON        CLEAR     75  63  66 S8        30.08S

$$
NJZ001>014-230400-
NORTHERN NEW JERSEY

CITY           SKY/WX    TMP DP  RH WIND       PRES   REMARKS
SUSSEX         CLEAR     74  69  85 CALM      30.05F
ANDOVER*         N/A     72  69  90 CALM      30.07S
MORRISTOWN     CLEAR     79  66  65 S3        30.06S
NEWARK         PTCLDY    77  65  66 S13       30.06S
TETERBORO      CLEAR     81  65  58 S13G20    30.04S
CALDWELL       CLEAR     79  64  60 SW5       30.06S
SOMERVILLE     CLEAR     77  66  68 S5        30.05S
ALLAIRE*       CLEAR     73  59  60 SW10      30.09F
TOMS RIVER*    CLEAR     72  66  83 SW5       30.10S

$$
PAZ043-044-047-054-055-060>062-066>071-230400-
EASTERN PENNSYLVANIA

CITY           SKY/WX    TMP DP  RH WIND       PRES   REMARKS
PHILADELPHIA   CLEAR     76  56  49 SW7       30.09F
NORTH PHILA    CLEAR     78  59  51 SW7       30.10S
BLUE BELL      CLEAR     75  63  64 S5        30.09S
DOYLESTOWN     CLEAR     74  63  68 S6        30.09S
QUAKERTOWN*    CLEAR     73  66  78 S3        30.10S
POTTSTOWN      CLEAR     74  64  71 VRB3      30.10F
LANCASTER      CLEAR     75  66  73 S5        30.09S
COATESVILLE    CLEAR     72  68  88 CALM      30.12S
READING        CLEAR     77  66  68 S6        30.07S
ALLENTOWN      CLEAR     77  68  73 SW8       30.07S
MOUNT POCONO   CLEAR     72  67  84 SW9       30.12F
HAZLETON       CLEAR     72  68  88 S3        30.14S
WILKES BARRE   CLEAR     77  68  73 VRB6      30.05F

$$
DEZALL-MDZ008-012-015-019-020-230400-
DELAWARE AND EASTERN MARYLAND

CITY           SKY/WX    TMP DP  RH WIND       PRES   REMARKS
WILMINGTON     CLEAR     76  70  82 S8        30.10S
DOVER          PTCLDY    72  66  82 S3        30.08F
GEORGETOWN     CLEAR     71  67  87 SE6       30.10F
EASTON         CLEAR     75  65  70 CALM      30.13
PATUXENT       PTCLDY    74  67  78 CALM      30.10S
OCEAN CITY     CLEAR     72  69  90 S3        30.10F
WALLOPS ISLAND CLEAR     74  71  91 S6        30.11S
CAMBRIDGE      CLEAR     73  63  68 CALM      30.10S

$$
PAZ001-021-NYZ056-072-MDZ011-DCZ001-230400-
OTHER NEARBY LOCATIONS

CITY           SKY/WX    TMP DP  RH WIND       PRES   REMARKS
HARRISBURG     PTCLDY    79  69  71 S8        30.07S
STATE COLLEGE  CLEAR     75  69  81 SW5       30.07F
WILLIAMSPORT   MOCLDY    77  68  73 W5        30.02F
BINGHAMTON     CLEAR     74  67  78 SW8       30.05F
NEW YORK CITY  CLEAR     78  64  61 VRB5      30.08S
BALTIMORE      CLEAR     75  64  68 S3        30.08S
WASHINGTON DC  CLEAR     79  67  66 S9        30.09F

$$


USA.gov is the U.S. government's official web portal to all federal, state and local government web resources and services.